Orbital Elements at Epoch 2459000.5 (2020-May-31.0) TDB
Reference: JPL 29 (heliocentric ecliptic J2000)
Element | Value | Uncertainty (1-sigma) | Units |
e | .1354804169321448 | 3.0002e-08 | |
a | 2.376255133073817 | 9.3866e-09 | au |
q | 2.054319096907827 | 7.2354e-08 | au |
i | 5.759018922569799 | 4.1023e-06 | deg |
node | 209.3995431627278 | 3.3836e-05 | deg |
peri | 93.10131428898121 | 3.7874e-05 | deg |
M | 258.739516064585 | 1.9307e-05 | deg |
tp | 2459376.835793898846 (2021-Jun-11.33579390) | 7.2941e-05 | TDB |
period | 1337.944285255398 3.66 | 7.9277e-06 2.17e-08 | d yr |
n | .2690695001034967 | 1.5943e-09 | deg/d |
Q | 2.698191169239807 | 1.0658e-08 | au |
|
| | Orbit Determination Parameters
Additional Information
|